DE2MSF Weather Reports


Display with metric or nautical units.
time (UTC)temp
F
wind
direction
speed
MPH
gust
MPH
rain 1hr
in
rain 24hr
in
rain mn
in
humidity
%
barometer
mb
20260503204513 60 229 3.0 8.0 0.00 0.01 0.00 90 1012.2
20260503203013 60 241 4.0 9.0 0.00 0.01 0.00 91 1012.2
20260503201514 60 245 2.0 7.0 0.00 0.01 0.00 91 1012.3
20260503200012 60 237 3.0 6.0 0.00 0.01 0.00 91 1012.4
20260503193013 60 260 4.0 7.0 0.00 0.09 0.00 91 1012.1
20260503191513 60 234 3.0 8.0 0.00 0.09 0.00 90 1012.0
20260503190013 60 236 4.0 9.0 0.00 0.09 0.00 90 1012.0
20260503184513 60 249 6.0 11.0 0.00 0.09 0.00 89 1011.9
20260503183012 60 236 4.0 9.0 0.00 0.09 0.00 89 1011.7
20260503180012 60 221 4.0 9.0 0.00 0.09 0.00 89 1011.5
20260503174515 60 246 6.0 11.0 0.00 0.09 0.00 88 1011.5
20260503081513 67 186 5.0 14.0 0.00 0.09 0.00 70 1012.0
20260503071512 64 188 2.0 6.0 0.00 0.09 0.00 78 1012.2
20260503054513 58 116 2.0 4.0 0.00 0.09 0.00 93 1012.1
20260503053012 58 89 2.0 4.0 0.00 0.09 0.00 92 1012.0
20260503051512 58 121 2.0 4.0 0.00 0.09 0.00 92 1012.1
20260503044512 58 132 2.0 4.0 0.00 0.09 0.00 92 1012.0
20260503043012 57 120 2.0 4.0 0.00 0.09 0.00 93 1011.7
20260503041512 57 106 2.0 4.0 0.00 0.09 0.00 95 1012.1
20260503040012 57 113 2.0 4.0 0.00 0.09 0.00 95 1012.0
20260503034513 57 97 2.0 4.0 0.00 0.09 0.00 95 1012.1
20260503031516 57 0 0.0 0.0 0.00 0.09 0.00 96 1012.6
20260503030013 58 88 0.0 2.0 0.00 0.09 0.00 96 1012.6
20260503024512 58 87 1.0 2.0 0.00 0.09 0.00 96 1012.7
20260503021514 57 310 0.0 4.0 0.00 0.09 0.00 95 1013.6
20260503020012 58 0 0.0 0.0 0.00 0.09 0.00 95 1013.6
20260503014512 58 0 0.0 0.0 0.00 0.09 0.00 94 1013.2
20260503011513 58 126 2.0 4.0 0.00 0.09 0.00 93 1013.4
20260503010013 58 117 2.0 4.0 0.00 0.09 0.00 93 1013.4
20260503004513 58 122 3.0 4.0 0.00 0.09 0.00 92 1013.7
20260503003012 59 102 1.0 4.0 0.00 0.09 0.00 92 1014.0
20260503001513 59 131 2.0 4.0 0.00 0.09 0.00 91 1014.0
20260503000012 59 218 2.0 4.0 0.00 0.09 0.00 90 1014.5
20260502234513 59 228 2.0 6.0 0.00 0.09 0.00 91 1015.1
20260502233012 59 271 2.0 7.0 0.00 0.09 0.00 93 1015.3
20260502230013 59 160 0.0 2.0 0.00 0.09 0.00 92 1014.6
20260502224512 59 104 1.0 4.0 0.00 0.09 0.00 91 1014.4
20260502223014 59 112 2.0 4.0 0.00 0.09 0.00 91 1014.7
20260502221515 59 105 3.0 6.0 0.01 0.09 0.00 92 1014.6
20260502220012 59 92 2.0 6.0 0.01 0.09 0.00 92 1014.4
20260502214513 60 122 2.0 6.0 0.01 0.09 0.09 90 1015.1
20260502213011 60 68 1.0 4.0 0.01 0.09 0.09 89 1014.6
20260502211511 60 69 2.0 4.0 0.00 0.08 0.08 87 1014.5
20260502210011 60 133 2.0 4.0 0.00 0.08 0.08 86 1015.0